Akron, CO

7:28 PM MST on December 15, 2019 (GMT -0700)
Akron-Washington County

Weather History for KAKO - November, 2019

Change the Weather History Date:

Wednesday, November 20, 2019

  Actual Average Record
Temperature  
Mean Temperature 39 °F 35 °F  
Max Temperature 48 °F 47 °F 69 °F (2006)
Min Temperature 29 °F 23 °F 1 °F (1953)
Degree Days  
Heating Degree Days 26    
Month to date heating degree days 492  
Cooling Degree Days 0    
Month to date cooling degree days 0  
Moisture  
Dew Point 30 °F    
Average Humidity 69    
Maximum Humidity 96    
Minimum Humidity 42    
Precipitation  
Precipitation 0.04 in 0.02 in 0.64 in (1973)
Month to date precipitation 0.09 0.40  
Year to date precipitation 15.37 16.16  
Snow  
Snow 0.00 in - - ()
Snow Depth 0.00 in    
Sea Level Pressure  
Sea Level Pressure 29.78 in    
Wind  
Wind Speed 14 mph (NNW)    
Max Wind Speed 30 mph    
Max Gust Speed 38 mph    
Visibility 7 miles    
Events Snow    
T = Trace of Precipitation, MM = Missing Value Source: NWS Daily Summary

Daily Weather History Graph

Daily Weather History Graph

Search for Another Location

Airport or City:

Astronomy

Nov. 20, 2019 Rise Set
Actual Time 6:43 AM MST 4:32 PM MST
Civil Twilight 6:14 AM MST 5:02 PM MST
Nautical Twilight 5:41 AM MST 5:35 PM MST
Astronomical Twilight 5:09 AM MST 6:07 PM MST
Moon No Moon Rise 1:30 PM MST (11/20)
Length of Visible Light 10h 47m
Length of Day
9h 48m
Last Quarter, 40% of the Moon is Illuminated
Nov 20
Last Quarter
Nov 26
New
Dec 3
First Quarter
Dec 11
Full
Dec 18
Last Quarter

Hourly Weather History & Observations

Time (MST) Temp. Windchill Dew Point Humidity Pressure Visibility Wind Dir Wind Speed Gust Speed Precip Events Conditions
12:53 AM 48.0 °F - 26.1 °F 42% 29.56 in 10.0 mi SSW 9.2 mph - N/A   Clear
1:53 AM 41.0 °F 39.0 °F 26.1 °F 55% 29.56 in 10.0 mi West 3.5 mph - N/A   Clear
2:53 AM 39.9 °F 33.4 °F 26.1 °F 58% 29.57 in 10.0 mi SW 10.4 mph - N/A   Clear
3:53 AM 39.0 °F 34.0 °F 27.0 °F 62% 29.57 in 10.0 mi WNW 6.9 mph - N/A   Clear
4:53 AM 36.0 °F 29.0 °F 28.0 °F 73% 29.56 in 10.0 mi WNW 9.2 mph - N/A   Clear
5:53 AM 36.0 °F 27.1 °F 28.0 °F 73% 29.58 in 10.0 mi WNW 13.8 mph - N/A   Clear
6:53 AM 34.0 °F 27.2 °F 28.9 °F 82% 29.61 in 10.0 mi West 8.1 mph - N/A   Clear
7:53 AM 37.0 °F 30.4 °F 30.0 °F 76% 29.62 in 10.0 mi WNW 9.2 mph - N/A   Clear
8:53 AM 39.0 °F 32.3 °F 30.9 °F 73% 29.65 in 10.0 mi NNW 10.4 mph - N/A   Clear
9:53 AM 44.1 °F 35.9 °F 32.0 °F 63% 29.65 in 10.0 mi North 19.6 mph 27.6 mph N/A   Clear
10:53 AM 46.9 °F - 34.0 °F 61% 29.66 in 10.0 mi North 28.8 mph 38.0 mph N/A   Clear
11:53 AM 46.0 °F 37.6 °F 33.1 °F 61% 29.64 in 10.0 mi North 24.2 mph 35.7 mph N/A   Clear
12:53 PM 45.0 °F 36.4 °F 33.1 °F 63% 29.65 in 10.0 mi North 23.0 mph - N/A   Clear
2:38 PM 43.0 °F 33.5 °F 33.1 °F 68% 29.73 in 10.0 mi NNE 24.2 mph 32.2 mph N/A   Mostly Cloudy
2:53 PM 43.0 °F 34.0 °F 32.0 °F 65% 29.74 in 10.0 mi NNE 21.9 mph - N/A   Overcast
4:53 PM 39.9 °F 30.2 °F 32.0 °F 73% 29.84 in 10.0 mi North 20.7 mph 27.6 mph N/A   Overcast
6:01 PM 34.0 °F 23.4 °F 32.0 °F 92% 29.88 in 6.0 mi North 17.3 mph - 0.00 in Snow Light Snow
6:13 PM 33.1 °F 23.0 °F 30.9 °F 92% 29.88 in 2.0 mi North 15.0 mph - 0.00 in Snow Light Snow
6:21 PM 32.0 °F 22.1 °F 30.9 °F 96% 29.89 in 1.2 mi NNW 13.8 mph - 0.01 in Snow Light Snow
6:53 PM 32.0 °F 22.1 °F 30.0 °F 92% 29.96 in 1.0 mi NNW 13.8 mph - 0.03 in Snow Light Snow
7:21 PM 32.0 °F 20.5 °F 30.0 °F 92% 29.91 in 1.2 mi NNW 18.4 mph - 0.00 in Snow Light Snow
7:46 PM 32.0 °F 20.1 °F 30.0 °F 92% 29.92 in 2.0 mi NNW 19.6 mph 28.8 mph 0.01 in Snow Light Snow
7:53 PM 32.0 °F 19.2 °F 30.0 °F 92% 29.97 in 2.0 mi NNW 23.0 mph - 0.01 in Snow Light Snow
8:00 PM 30.9 °F 18.1 °F 30.0 °F 96% 29.93 in 1.8 mi NNW 21.9 mph - 0.00 in Snow Light Snow
8:24 PM 30.9 °F 19.4 °F 28.9 °F 92% 29.94 in 2.5 mi NNW 17.3 mph 26.5 mph 0.00 in Snow Light Snow
8:53 PM 30.0 °F 17.9 °F 28.9 °F 96% 30.00 in 3.0 mi NNW 18.4 mph - 0.00 in Snow Light Snow
10:53 PM 30.0 °F 19.1 °F 27.0 °F 88% 30.01 in 10.0 mi NNW 15.0 mph - 0.00 in   Overcast
11:06 PM 28.9 °F 16.9 °F 27.0 °F 92% 29.98 in 10.0 mi NNW 17.3 mph - N/A   Overcast
11:16 PM 28.9 °F 17.3 °F 27.0 °F 92% 29.98 in 10.0 mi NNW 16.1 mph - N/A   Overcast
11:53 PM 28.9 °F 17.3 °F 27.0 °F 92% 30.00 in 10.0 mi North 16.1 mph - N/A   Overcast